Time,TemperatureF,DewpointF,PressureIn,WindDirection,WindDirectionDegrees,WindSpeedMPH,WindSpeedGustMPH,Humidity,HourlyPrecipIn,Conditions,Clouds,dailyrainin,SoftwareType,DateUTC
2013-03-19 00:00:00,28.3,26.5,30.19,NE,48,0.0,0.0,93,0.00,,,0.00,WeatherTracker,2013-03-19 04:00:00,
2013-03-19 00:01:00,28.3,26.5,30.19,NE,44,0.0,0.0,93,0.00,,,0.00,WeatherTracker,2013-03-19 04:01:00,
2013-03-19 00:06:00,28.3,26.5,30.18,NE,40,0.0,0.0,93,0.00,,,0.00,WeatherTracker,2013-03-19 04:06:00,
2013-03-19 00:11:00,28.3,26.5,30.18,NE,40,0.0,0.0,93,0.00,,,0.00,WeatherTracker,2013-03-19 04:11:00,
2013-03-19 00:16:00,28.3,26.5,30.18,NE,43,0.0,0.0,93,0.00,,,0.00,WeatherTracker,2013-03-19 04:16:00,
2013-03-19 00:21:00,28.3,26.5,30.17,NNE,33,1.0,0.0,93,0.00,,,0.00,WeatherTracker,2013-03-19 04:21:00,
2013-03-19 00:26:00,28.3,26.5,30.17,NNE,33,0.0,0.0,93,0.00,,,0.00,WeatherTracker,2013-03-19 04:26:00,
2013-03-19 00:31:00,28.3,26.5,30.16,NNE,28,0.0,0.0,93,0.00,,,0.00,WeatherTracker,2013-03-19 04:31:00,
2013-03-19 00:36:00,28.3,26.5,30.16,NNE,24,0.0,0.0,93,0.00,,,0.00,WeatherTracker,2013-03-19 04:36:00,
2013-03-19 00:41:00,28.3,26.5,30.15,NNE,29,0.0,0.0,93,0.00,,,0.00,WeatherTracker,2013-03-19 04:41:00,
2013-03-19 00:46:00,28.2,26.4,30.15,ENE,74,0.0,0.0,93,0.00,,,0.00,WeatherTracker,2013-03-19 04:46:00,
2013-03-19 00:51:00,28.2,26.7,30.14,NNE,27,0.0,0.0,94,0.00,,,0.00,WeatherTracker,2013-03-19 04:51:00,
2013-03-19 00:56:00,28.3,26.8,30.14,NNE,28,0.0,0.0,94,0.00,,,0.00,WeatherTracker,2013-03-19 04:56:00,
2013-03-19 01:01:00,28.3,26.8,30.14,NE,36,0.0,0.0,94,0.00,,,0.00,WeatherTracker,2013-03-19 05:01:00,
2013-03-19 01:06:00,28.4,26.9,30.14,NNE,22,0.0,0.0,94,0.00,,,0.00,WeatherTracker,2013-03-19 05:06:00,
2013-03-19 01:11:00,28.4,26.9,30.13,NE,36,0.0,0.0,94,0.00,,,0.00,WeatherTracker,2013-03-19 05:11:00,
2013-03-19 01:16:00,28.5,27.0,30.12,NE,47,0.0,0.0,94,0.00,,,0.00,WeatherTracker,2013-03-19 05:16:00,
2013-03-19 01:21:00,28.5,27.0,30.12,NNE,17,0.0,0.0,94,0.00,,,0.00,WeatherTracker,2013-03-19 05:21:00,
2013-03-19 01:26:00,28.5,27.0,30.11,NE,42,0.0,0.0,94,0.00,,,0.00,WeatherTracker,2013-03-19 05:26:00,
2013-03-19 01:31:00,28.5,27.0,30.11,ENE,71,0.0,0.0,94,0.00,,,0.00,WeatherTracker,2013-03-19 05:31:00,
2013-03-19 01:37:00,28.5,27.0,30.10,NE,51,0.0,0.0,94,0.00,,,0.00,WeatherTracker,2013-03-19 05:37:00,
2013-03-19 01:42:00,28.5,27.0,30.10,NE,45,0.0,0.0,94,0.00,,,0.00,WeatherTracker,2013-03-19 05:42:00,
2013-03-19 01:47:00,28.5,27.0,30.10,NE,44,0.0,0.0,94,0.00,,,0.00,WeatherTracker,2013-03-19 05:47:00,
2013-03-19 01:52:00,28.5,27.0,30.09,NNE,28,0.0,0.0,94,0.00,,,0.00,WeatherTracker,2013-03-19 05:52:00,
2013-03-19 01:57:00,28.6,27.1,30.09,NNE,33,3.0,0.0,94,0.00,,,0.00,WeatherTracker,2013-03-19 05:57:00,
2013-03-19 02:02:00,28.6,27.1,30.09,NNE,15,1.0,0.0,94,0.00,,,0.00,WeatherTracker,2013-03-19 06:02:00,
2013-03-19 02:07:00,28.7,27.2,30.07,ENE,73,1.0,0.0,94,0.00,,,0.00,WeatherTracker,2013-03-19 06:07:00,
2013-03-19 02:12:00,28.8,27.3,30.07,ENE,60,3.0,0.0,94,0.00,,,0.00,WeatherTracker,2013-03-19 06:12:00,
2013-03-19 02:17:00,28.9,27.4,30.07,East,86,0.0,0.0,94,0.00,,,0.00,WeatherTracker,2013-03-19 06:17:00,
2013-03-19 02:22:00,28.9,27.4,30.06,ENE,57,0.0,0.0,94,0.00,,,0.00,WeatherTracker,2013-03-19 06:22:00,
2013-03-19 02:27:00,28.9,27.4,30.06,NE,36,0.0,0.0,94,0.00,,,0.00,WeatherTracker,2013-03-19 06:27:00,
2013-03-19 02:32:00,29.0,27.5,30.06,ESE,105,1.0,0.0,94,0.00,,,0.00,WeatherTracker,2013-03-19 06:32:00,
2013-03-19 02:37:00,29.0,27.8,30.06,NE,53,0.0,0.0,95,0.00,,,0.00,WeatherTracker,2013-03-19 06:37:00,
2013-03-19 02:42:00,29.0,27.8,30.06,NNE,29,2.0,0.0,95,0.00,,,0.00,WeatherTracker,2013-03-19 06:42:00,
2013-03-19 02:47:00,29.0,27.8,30.05,East,92,1.0,0.0,95,0.00,,,0.00,WeatherTracker,2013-03-19 06:47:00,
2013-03-19 02:52:00,29.0,27.8,30.05,NE,51,0.0,0.0,95,0.00,,,0.00,WeatherTracker,2013-03-19 06:52:00,
2013-03-19 02:57:00,29.0,27.8,30.05,SSE,156,2.0,0.0,95,0.00,,,0.00,WeatherTracker,2013-03-19 06:57:00,
2013-03-19 03:02:00,29.0,27.8,30.04,East,95,2.0,0.0,95,0.00,,,0.00,WeatherTracker,2013-03-19 07:02:00,
2013-03-19 03:07:00,29.1,27.9,30.04,ESE,110,3.0,0.0,95,0.00,,,0.00,WeatherTracker,2013-03-19 07:07:00,
2013-03-19 03:12:00,29.1,27.9,30.03,NNE,17,0.0,0.0,95,0.00,,,0.00,WeatherTracker,2013-03-19 07:12:00,
2013-03-19 03:17:00,29.2,27.9,30.03,SE,146,0.0,0.0,95,0.00,,,0.00,WeatherTracker,2013-03-19 07:17:00,
2013-03-19 03:22:00,29.3,28.0,30.02,NNE,27,1.0,0.0,95,0.00,,,0.00,WeatherTracker,2013-03-19 07:22:00,
2013-03-19 03:27:00,29.4,28.1,30.02,ENE,63,0.0,0.0,95,0.00,,,0.00,WeatherTracker,2013-03-19 07:27:00,
2013-03-19 03:32:00,29.4,28.1,30.03,East,88,2.0,0.0,95,0.00,,,0.00,WeatherTracker,2013-03-19 07:32:00,
2013-03-19 03:38:00,29.5,28.2,30.03,ESE,110,0.0,0.0,95,0.00,,,0.00,WeatherTracker,2013-03-19 07:38:00,
2013-03-19 03:43:00,29.6,28.3,30.03,SE,133,1.0,0.0,95,0.00,,,0.00,WeatherTracker,2013-03-19 07:43:00,
2013-03-19 03:48:00,29.6,28.3,30.02,NE,52,0.0,0.0,95,0.00,,,0.00,WeatherTracker,2013-03-19 07:48:00,
2013-03-19 03:53:00,29.6,28.3,30.03,NE,46,0.0,0.0,95,0.00,,,0.00,WeatherTracker,2013-03-19 07:53:00,
2013-03-19 03:58:00,29.6,28.3,30.03,NE,44,0.0,0.0,95,0.00,,,0.00,WeatherTracker,2013-03-19 07:58:00,
2013-03-19 04:03:00,29.7,28.4,30.02,NE,34,0.0,0.0,95,0.00,,,0.00,WeatherTracker,2013-03-19 08:03:00,
2013-03-19 04:08:00,29.8,28.5,30.02,North,2,0.0,0.0,95,0.00,,,0.00,WeatherTracker,2013-03-19 08:08:00,
2013-03-19 04:13:00,29.8,28.5,30.02,NE,36,0.0,0.0,95,0.00,,,0.00,WeatherTracker,2013-03-19 08:13:00,
2013-03-19 04:18:00,29.9,28.9,30.01,ESE,107,0.0,0.0,96,0.00,,,0.00,WeatherTracker,2013-03-19 08:18:00,
2013-03-19 04:23:00,30.0,28.7,30.01,NNE,15,0.0,0.0,95,0.00,,,0.00,WeatherTracker,2013-03-19 08:23:00,
2013-03-19 22:11:00,31.8,30.8,29.62,SW,227,6.0,0.0,96,0.00,,,0.03,WeatherTracker,2013-03-20 02:11:00,
2013-03-19 22:16:00,31.7,30.7,29.62,NW,306,3.0,0.0,96,0.00,,,0.03,WeatherTracker,2013-03-20 02:16:00,
2013-03-19 22:21:00,31.6,30.6,29.61,WNW,303,2.0,0.0,96,0.00,,,0.03,WeatherTracker,2013-03-20 02:21:00,
2013-03-19 22:26:00,31.3,30.3,29.61,West,264,1.0,0.0,96,0.00,,,0.03,WeatherTracker,2013-03-20 02:26:00,
2013-03-19 22:31:00,30.9,29.9,29.61,WNW,294,0.0,0.0,96,0.00,,,0.03,WeatherTracker,2013-03-20 02:31:00,
2013-03-19 22:36:00,30.7,29.4,29.61,WNW,303,2.0,0.0,95,0.00,,,0.03,WeatherTracker,2013-03-20 02:36:00,
2013-03-19 22:42:00,30.5,29.2,29.61,NW,313,0.0,0.0,95,0.00,,,0.03,WeatherTracker,2013-03-20 02:42:00,
2013-03-19 22:47:00,30.3,29.0,29.61,WNW,298,2.0,0.0,95,0.00,,,0.03,WeatherTracker,2013-03-20 02:47:00,
2013-03-19 22:52:00,30.2,28.9,29.62,WNW,302,2.0,0.0,95,0.00,,,0.03,WeatherTracker,2013-03-20 02:52:00,
2013-03-19 22:57:00,29.9,28.4,29.62,WSW,244,1.0,0.0,94,0.00,,,0.03,WeatherTracker,2013-03-20 02:57:00,
2013-03-19 23:02:00,29.7,28.2,29.62,West,265,3.0,0.0,94,0.00,,,0.03,WeatherTracker,2013-03-20 03:02:00,
2013-03-19 23:07:00,29.6,28.1,29.62,WNW,294,2.0,0.0,94,0.00,,,0.03,WeatherTracker,2013-03-20 03:07:00,
2013-03-19 23:12:00,29.6,28.1,29.62,NW,316,0.0,0.0,94,0.00,,,0.03,WeatherTracker,2013-03-20 03:12:00,
2013-03-19 23:17:00,29.5,28.0,29.62,NW,319,1.0,0.0,94,0.00,,,0.03,WeatherTracker,2013-03-20 03:17:00,
2013-03-19 23:22:00,29.3,27.8,29.62,East,79,0.0,0.0,94,0.00,,,0.03,WeatherTracker,2013-03-20 03:22:00,
2013-03-19 23:27:00,29.3,27.8,29.62,NW,310,1.0,0.0,94,0.00,,,0.03,WeatherTracker,2013-03-20 03:27:00,
2013-03-19 23:32:00,29.2,27.4,29.62,NNW,333,2.0,0.0,93,0.00,,,0.03,WeatherTracker,2013-03-20 03:32:00,
2013-03-19 23:37:00,28.9,27.1,29.62,NW,318,2.0,0.0,93,0.00,,,0.03,WeatherTracker,2013-03-20 03:37:00,
2013-03-19 23:42:00,28.7,26.7,29.63,NNW,339,0.0,0.0,92,0.00,,,0.03,WeatherTracker,2013-03-20 03:42:00,
2013-03-19 23:47:00,28.6,26.6,29.63,West,261,1.0,0.0,92,0.00,,,0.03,WeatherTracker,2013-03-20 03:47:00,
2013-03-19 23:52:00,28.5,26.5,29.63,WNW,286,3.0,0.0,92,0.00,,,0.03,WeatherTracker,2013-03-20 03:52:00,
2013-03-19 23:57:00,28.4,26.4,29.64,West,259,1.0,0.0,92,0.00,,,0.03,WeatherTracker,2013-03-20 03:57:00,